Torna al catalogo

KUIPER-00412

AttivoComunicazioniLEO
NORAD 68927·PAYLOAD·🇺🇸 United States

Lanciato Apr 30, 2026 da Guiana Space Centre

Loading…

Prossimi Passaggi (prossime 24 ore)

TLE

AggiornatoSource: CelesTrak SupGP

Epoca: Sep 15, 2026, 03:16 UTC

1 68927C 26098J   26258.13616898 -.00005825  00000+0 -76244-3 0  2587
2 68927  51.9040  10.4258 0000577 114.9966  92.8536 14.79937758    12

Traccia KUIPER-00412 in tempo reale con AllMySat

Download on the App Store